Location: B�rgermoos
(47.6500°N, 9.0667°E)
Time: 05:12:39
(UTC+00:00)

Altair - Visible Passes

Search period start: 31 July 2021 00:00
Search period end: 10 August 2021 00:00
Orbit: 1502 x 1682 km, 47.2° (Epoch: 30 July)

Date Brightness Start Highest point End Pass type
(mag) Time Alt. Az. Time Alt. Az. Time Alt. Az.
31 Jul 8.1 00:26:40 31° SSE 00:29:04 35° SE 00:37:05 10° ENE visible
31 Jul 7.5 02:24:40 15° WSW 02:32:49 73° SSE 02:41:58 10° ENE visible
01 Aug 8.1 00:02:32 31° SSE 00:04:00 32° SE 00:11:51 10° ENE visible
01 Aug 7.5 02:00:31 19° WSW 02:07:41 71° SSE 02:16:48 10° ENE visible
01 Aug 8.2 23:38:20 30° SE 23:38:57 30° SE 23:46:36 10° E visible
02 Aug 7.4 01:36:20 24° SW 01:42:32 68° SSE 01:51:38 10° ENE visible
02 Aug 8.3 23:14:06 28° SE 23:14:06 28° SE 23:21:19 10° E visible
03 Aug 7.4 01:12:05 29° SW 01:17:25 65° SSE 01:26:29 10° ENE visible
03 Aug 7.5 03:12:34 10° W 03:21:56 88° S 03:31:09 10° E visible
03 Aug 8.4 22:49:49 25° SE 22:49:49 25° SE 22:56:02 10° E visible
04 Aug 7.4 00:47:48 34° SW 00:52:16 63° SSE 01:01:19 10° ENE visible
04 Aug 7.5 02:47:22 10° W 02:56:46 88° S 03:06:00 10° E visible
04 Aug 8.5 22:25:29 23° ESE 22:25:29 23° ESE 22:30:42 10° E visible
05 Aug 7.5 00:23:27 38° SSW 00:27:09 60° SSE 00:36:10 10° ENE visible
05 Aug 7.4 02:22:10 10° W 02:31:35 88° S 02:40:49 10° E visible
05 Aug 8.6 22:01:04 20° ESE 22:01:04 20° ESE 22:05:21 10° E visible
05 Aug 7.5 23:59:02 42° SSW 00:02:02 57° SSE 00:11:00 10° ENE visible
06 Aug 7.4 01:56:59 10° W 02:06:25 87° S 02:15:39 10° E visible
06 Aug 8.8 21:36:33 17° ESE 21:36:33 17° ESE 21:39:56 10° E visible
06 Aug 7.5 23:34:30 45° S 23:36:55 54° SSE 23:45:50 10° ENE visible
07 Aug 7.4 01:32:27 13° WSW 01:41:14 86° S 01:50:29 10° E visible
07 Aug 8.8 21:11:54 15° ESE 21:11:54 15° ESE 21:14:28 10° E visible
07 Aug 7.5 23:09:50 45° S 23:11:48 51° SSE 23:20:40 10° ENE visible
08 Aug 7.4 01:07:46 15° WSW 01:16:04 85° S 01:25:19 10° E visible
08 Aug 7.5 03:11:26 10° W 03:20:48 81° SSW 03:29:59 10° ESE visible
08 Aug 8.9 20:47:00 14° ESE 20:47:00 14° ESE 20:48:56 10° E visible
08 Aug 7.6 22:44:55 44° S 22:46:42 48° SE 22:55:30 10° ENE visible
09 Aug 7.3 00:42:49 16° WSW 00:50:53 83° S 01:00:10 10° E visible
09 Aug 7.4 02:46:14 10° W 02:55:38 83° SSW 03:04:50 10° ESE visible
09 Aug 8.9 20:21:37 13° ESE 20:21:37 13° ESE 20:23:16 10° E visible
09 Aug 7.6 22:19:28 40° S 22:21:35 46° SE 22:30:19 10° ENE visible
